Probability
1 1 1 0 0 1 0 0 0 0 0 0 0 0 0 0 0 0 0 0 0 0 0 0 0 0 0 0 0 0 0 0 0 0 0 0 0 0 0 0 0 0 0
0 0 0 0 1 1 1 0 0 0 0 0 0 0 0 0 0 0 0 0 0 0 0 0 0 0 0 0 0 0 0 0 0 0 0 0 0 0 0 0 0 0 0
0 0 0 0 1 2 1 0 0 0 0 0 0 0 0 0 0 0 0 0 0 0 0 0 0 0 0 0 0 0 0 0 0 0 0 0 0 0 0 0 0 0 0
0 0 0 0 0 1 1 0 0 0 0 0 0 0 0 0 0 0 0 0 0 0 0 0 0 0 0 0 0 0 0 0 0 0 0 0 0 0 0 0 0 0 0
1 0 0 0 0 0 0 0 0 0 0 0 0 0 0 0 0 0 0 0 0 0 0 0 0 0 0 0 0 0 0 0 0 0 0 0 0 0 0 0 0 0 0
1 1 0 0 0 0 0 0 0 0 0 0 0 0 0 0 0 0 0 0 0 0 0 0 0 0 0 0 0 0 0 0 0 0 0 0 0 0 0 0 0 0 0
1 1 0 0 0 0 0 0 0 1 0 0 0 0 0 0 0 0 0 0 0 0 0 0 0 0 0 0 0 0 0 0 0 0 0 0 0 0 0 0 0 0 0
0 0 0 0 0 0 0 0 0 0 0 0 0 0 0 0 0 0 0 0 0 0 0 0 0 0 0 0 0 0 0 0 0 0 0 0 0 0 0 0 0 0 0
0 0 0 0 0 0 0 0 0 0 0 0 0 0 0 0 0 0 0 0 0 0 0 0 0 0 0 0 0 0 0 0 0 0 0 0 0 0 0 0 0 0 0
0 0 0 0 0 0 0 0 0 0 0 0 0 0 0 0 0 0 0 0 0 0 0 0 0 0 0 0 0 0 0 0 0 0 0 0 0 0 0 0 0 0 0
0 0 0 0 0 0 0 0 0 0 0 0 0 0 0 0 0 0 0 0 0 0 0 0 0 0 0 0 0 0 0 0 0 0 0 0 0 0 0 0 0 0 0
0 0 0 0 0 0 0 0 0 0 0 0 0 0 0 0 0 0 0 0 0 0 0 0 0 0 0 0 0 0 0 0 0 0 0 0 0 0 0 0 0 0 0
0 0 0 0 0 0 0 0 0 0 0 0 0 0 0 0 0 0 0 0 0 0 0 0 0 0 0 0 0 0 0 0 0 0 0 0 0 0 0 0 0 0 0
0 0 0 0 0 0 0 0 0 0 0 0 0 0 0 0 0 0 0 0 0 0 0 0 0 0 0 0 0 0 0 0 0 0 0 0 0 0 0 0 0 0 0
0 0 0 0 0 0 0 0 0 0 0 0 0 0 0 0 0 0 0 0 0 0 0 0 0 0 0 0 0 0 0 0 0 0 0 0 0 0 0 0 0 0 0
1 0 0 0 0 0 0 0 0 0 0 0 0 0 0 0 0 0 0 0 0 0 0 0 0 0 0 0 0 0 0 0 0 0 0 0 0 0 0 0 0 0 0
2 1 0 0 0 0 0 0 0 0 0 0 0 0 0 0 0 0 0 0 0 0 0 0 0 0 0 0 0 0 0 0 0 0 0 0 0 0 0 0 0 0 0
2 2 1 1 0 0 0 0 0 0 0 0 0 0 0 0 0 0 0 0 0 0 0 0 0 0 0 0 0 0 0 0 0 0 0 0 0 0 0 0 0 0 0
1 2 2 2 1 0 1 1 1 1 0 0 0 0 0 0 0 0 0 0 0 0 0 0 0 0 0 0 0 0 0 0 0 0 0 0 0 0 0 0 0 0 0
0 1 1 2 1 1 2 2 2 2 1 0 0 0 0 0 0 0 0 0 0 0 0 0 0 0 0 0 0 0 0 0 0 0 0 0 0 0 0 0 0 0 0
0 0 0 1 1 1 2 3 3 2 1 0 0 0 0 0 0 0 0 0 0 0 0 0 0 0 0 0 0 0 0 0 0 0 0 0 0 0 0 0 0 0 0
0 0 0 0 0 0 1 1 2 2 1 0 1 1 0 0 0 0 0 0 0 0 0 0 0 0 0 0 0 0 0 0 0 0 0 0 0 0 0 0 0 0 0
1 0 0 0 0 0 0 0 1 1 0 1 1 1 0 0 0 0 0 0 0 0 0 0 0 0 0 0 0 0 0 0 0 0 0 0 0 0 0 0 0 0 0
2 2 1 1 0 0 0 0 0 0 1 2 2 1 0 0 0 0 0 0 0 0 0 0 0 0 0 0 0 0 0 0 0 0 0 0 0 0 0 0 0 0 0
3 3 3 2 1 1 1 0 0 0 1 2 1 0 0 0 0 0 0 0 0 0 0 0 0 0 0 0 0 0 0 0 0 0 0 0 0 0 0 0 0 0 0
2 3 4 4 3 2 2 1 0 0 0 1 1 0 0 0 0 0 0 0 0 0 0 0 0 0 0 0 0 0 0 0 0 0 0 0 0 0 0 0 0 0 0
Wind_Speed
7 8 7 8 8 9 9 9 8 9 9 9 10 10 10 10 11 11 11 11 11 11 11 12 12 12 12 12 11 11 11 10 9 9 9 9 9 9 9 9 7 6 9
9 9 7 8 9 9 9 8 8 8 8 9 9 10 10 10 10 10 10 10 10 10 10 11 11 11 11 10 10 10 9 8 7 6 5 6 8 8 9 9 9 6 8
10 10 7 7 8 8 8 8 8 7 7 8 8 9 9 9 9 9 9 9 9 9 9 10 10 10 9 9 9 8 8 7 7 6 4 1 4 7 7 7 7 7 6
10 9 8 7 8 8 8 8 8 7 8 8 8 8 8 8 9 8 8 8 8 9 9 9 9 9 8 8 8 7 7 6 7 8 3 2 4 6 6 5 5 5 5
9 9 8 8 8 8 8 8 8 8 8 8 8 8 8 9 8 8 8 7 7 8 8 8 8 8 8 7 7 6 6 7 8 7 3 2 4 5 5 5 4 5 4
9 9 8 8 9 9 8 8 8 8 8 8 8 9 9 8 8 8 7 6 6 7 7 7 7 6 6 6 6 5 6 7 8 4 3 3 3 4 4 4 4 3 3
8 8 8 8 8 8 8 8 8 8 9 8 8 8 8 8 7 7 6 6 5 5 6 6 5 5 5 4 4 5 6 8 5 4 3 3 4 4 4 4 3 3 4
8 7 7 7 7 7 7 7 7 8 8 8 8 8 8 7 6 6 5 5 5 5 5 4 3 3 3 3 3 4 5 6 6 4 2 2 3 2 3 4 4 4 4
7 7 5 4 5 6 7 7 7 7 7 7 6 6 6 5 5 5 5 4 4 4 4 3 2 2 2 2 3 4 5 6 5 3 3 1 2 2 4 5 5 5 5
6 5 4 4 3 3 4 5 6 6 5 5 5 5 4 3 4 4 4 4 4 4 3 2 2 1 2 3 4 4 5 6 4 3 1 1 1 2 4 5 6 6 7
6 5 4 3 3 2 2 4 3 4 4 4 3 3 2 1 1 2 3 3 3 3 3 3 3 3 3 4 5 6 5 3 3 2 1 1 1 3 5 6 6 7 7
5 4 4 4 3 2 2 2 1 2 2 1 2 1 0 1 1 2 3 2 1 1 2 3 4 4 3 2 3 4 2 3 2 2 1 2 2 4 6 7 7 8 8
3 4 4 4 3 3 2 2 1 1 1 1 2 1 1 2 2 2 1 1 0 1 1 2 2 2 2 2 2 2 3 2 2 2 1 3 3 5 7 8 8 8 9
3 3 3 4 3 3 3 2 2 2 2 2 3 3 2 2 2 1 1 1 1 1 1 2 1 2 3 3 3 3 3 2 2 2 1 3 4 5 7 8 8 9 9
3 3 3 3 3 3 3 2 3 3 3 3 3 3 4 2 2 2 2 2 2 2 2 2 2 2 3 3 3 4 4 4 3 3 1 3 4 5 7 8 9 9 9
3 2 2 3 2 3 3 3 2 2 2 2 3 3 3 3 3 2 2 2 3 3 3 2 3 3 3 2 4 4 4 4 3 3 2 2 3 4 6 8 9 9 9
2 2 3 3 3 3 3 3 2 2 2 2 2 3 4 3 3 2 2 2 2 2 2 2 3 3 3 3 4 4 3 3 3 3 3 2 2 2 3 6 7 8 8
3 3 3 3 3 3 3 2 2 2 3 3 3 3 3 3 3 2 2 2 3 2 2 2 3 3 3 4 4 4 3 3 3 2 2 2 2 2 3 5 7 8 8
2 2 3 3 3 2 2 2 2 2 3 3 3 3 3 4 3 3 2 2 3 2 3 3 3 3 4 4 4 4 3 3 2 2 2 2 3 3 3 4 6 7 7
3 3 3 2 2 1 1 2 2 3 3 3 3 3 4 4 4 3 3 3 3 2 3 3 4 3 3 4 5 4 4 2 2 2 2 2 2 3 3 4 3 4 7
3 3 3 3 2 1 1 1 1 1 2 2 3 4 4 4 4 3 3 3 3 3 3 4 3 4 3 4 3 4 3 2 2 2 2 2 3 3 4 4 3 3 3
3 3 3 2 2 2 2 1 0 0 1 1 2 3 4 4 4 4 4 3 3 3 4 4 4 3 3 3 3 3 3 3 3 3 2 2 3 4 4 4 4 3 3
3 2 2 2 2 2 2 1 1 1 1 1 2 2 3 4 4 4 4 3 3 3 3 4 4 4 3 3 2 2 2 3 4 2 2 2 3 3 3 4 4 4 4
3 2 2 2 2 2 2 2 2 1 0 1 1 1 3 3 3 3 4 3 3 3 4 4 4 3 3 3 3 2 2 3 3 5 3 3 4 4 4 4 4 3 3
2 3 2 2 3 2 2 2 1 1 1 1 1 2 2 2 3 4 4 4 4 3 3 4 4 4 3 3 3 3 3 3 2 4 6 5 5 4 4 4 3 3 3
2 3 3 3 3 3 2 2 2 2 2 2 2 2 2 2 3 4 4 4 4 3 3 3 3 4 3 3 3 3 3 3 3 4 5 6 6 5 5 4 3 3 3
Wind_Direction
110 120 122 116 110 106 100 94 91 89 89 88 86 85 84 84 84 82 80 79 77 76 73 71 70 67 66 64 63 60 57 56 56 57 62 66 66 66 61 50 52 59 61
114 121 118 116 114 108 103 98 94 92 92 89 88 87 86 85 86 85 84 81 78 77 76 74 71 69 67 65 63 61 54 48 41 35 50 69 75 70 61 50 51 54 53
111 118 115 107 110 106 103 100 97 96 94 91 90 89 89 89 88 89 86 82 79 77 77 75 72 69 68 65 61 56 49 34 13 354 346 69 95 78 66 55 51 48 47
114 119 113 101 103 104 102 100 96 96 94 91 89 90 92 94 88 87 85 82 79 77 78 76 72 69 67 64 57 49 37 15 353 338 341 53 81 77 63 53 46 38 35
108 110 107 99 100 100 98 94 92 93 91 91 86 84 89 90 85 80 80 80 77 76 76 75 72 67 62 59 51 40 20 359 340 322 323 47 71 68 53 38 28 27 22
100 105 108 99 98 99 95 92 89 87 84 86 85 82 82 85 81 77 75 77 78 77 77 76 73 67 59 51 40 24 3 349 332 325 358 42 68 61 40 23 15 14 2
99 100 107 94 95 96 93 91 88 86 83 81 81 81 81 82 80 76 74 71 77 79 76 75 71 63 53 42 27 8 351 339 324 333 354 42 60 51 23 4 350 345 336
93 96 101 85 86 88 90 88 85 85 83 82 81 79 79 81 81 77 71 67 65 73 68 62 65 57 42 22 3 347 336 326 324 329 351 56 68 42 351 338 327 324 321
90 95 99 96 90 82 81 84 80 77 75 75 78 78 77 78 80 75 64 57 57 57 56 44 40 31 6 342 328 319 313 311 305 297 314 53 72 2 326 316 314 314 311
72 81 88 96 101 98 94 87 85 80 74 74 73 71 71 78 84 81 68 58 52 42 37 25 9 328 308 295 290 288 294 301 281 282 299 78 67 329 319 313 310 308 308
54 55 65 73 78 85 99 98 102 97 86 88 82 79 83 84 115 114 84 69 49 26 11 353 325 296 287 273 269 267 276 263 281 290 311 81 328 309 307 306 306 305 303
49 46 46 45 50 55 66 89 91 101 101 95 81 87 18 23 41 53 94 92 43 354 326 315 309 299 280 267 261 256 258 264 271 274 252 203 263 292 298 300 299 300 300
65 51 42 37 41 46 42 59 49 49 53 36 40 34 17 34 40 44 68 79 311 288 296 298 292 288 295 307 303 280 277 285 276 266 234 220 254 282 293 295 295 298 300
67 55 43 35 38 43 46 41 49 47 39 31 23 18 21 24 15 16 26 12 354 336 329 331 320 314 308 302 301 301 301 297 292 289 243 235 250 273 288 294 297 296 297
48 38 38 43 43 38 44 39 47 47 48 38 35 23 21 23 11 10 3 7 356 351 347 331 324 316 310 307 302 297 292 289 288 293 290 259 260 270 283 291 299 299 297
47 36 32 39 40 52 52 46 43 51 50 47 43 29 26 25 17 16 11 12 356 354 347 335 328 328 313 308 302 298 292 290 291 293 290 286 273 279 293 301 304 306 306
35 31 37 46 43 57 58 49 42 46 57 53 44 33 31 25 20 22 17 9 347 344 341 343 334 329 324 318 310 301 295 291 294 299 313 324 324 326 324 324 325 322 316
43 38 41 39 43 48 56 57 47 43 52 49 39 35 32 26 19 24 22 4 349 351 358 355 344 337 330 323 313 305 301 294 293 310 338 344 339 345 345 344 340 333 331
55 52 48 44 47 47 48 56 52 52 53 45 37 30 22 23 21 25 18 4 0 3 358 352 350 343 332 325 310 301 301 299 300 331 339 348 355 357 353 354 342 336 333
52 59 54 47 45 53 60 60 47 50 51 42 36 27 24 24 21 25 24 8 2 10 1 353 343 338 330 321 310 307 297 298 332 347 348 352 360 352 350 349 340 339 342
43 43 46 45 30 28 36 50 50 32 34 37 32 25 23 21 19 27 20 10 7 10 1 350 343 336 339 334 322 320 313 303 340 338 344 346 350 352 353 347 341 344 335
40 26 33 32 31 26 14 16 115 119 59 50 36 27 20 18 14 18 17 7 4 3 3 356 351 341 342 355 337 321 321 322 346 323 332 348 347 343 340 336 334 334 334
34 18 13 23 34 27 23 33 41 59 49 38 23 14 14 17 17 15 11 9 3 5 358 351 350 350 338 340 357 338 320 306 321 308 324 336 342 330 329 329 334 336 331
13 9 20 27 36 24 22 38 32 36 358 347 16 13 12 16 15 17 14 13 14 11 6 357 1 354 347 337 339 341 316 308 308 308 316 338 336 326 325 323 326 327 329
20 15 16 30 36 33 29 33 31 14 7 19 32 30 21 14 17 16 20 20 21 16 10 4 2 7 5 354 349 336 328 320 314 290 300 316 321 313 313 311 313 318 321
37 22 15 25 27 27 36 35 42 34 20 18 24 31 24 15 13 17 22 22 17 13 11 9 7 9 5 0 354 351 339 324 322 307 296 304 303 305 305 308 314 319 321